Regional Weather Roundup
Issued by NWS Mobile, AL

Home | Current Version | Previous Version | Text Only | Print | Product List | Glossary On
Versions: 1 2 3 4 5 6 7 8 9 10 11 12 13 14 15 16 17 18 19 20 21 22 23 24 25 26 27 28 29 30 31 32 33 34 35 36 37 38 39 40 41 42 43 44 45 46 47 48 49 50
000
ASUS44 KMOB 280216
RWRMOB
REGIONAL WEATHER ROUNDUP
NATIONAL WEATHER SERVICE MOBILE AL
900 PM CDT WED MAY 27 2015

ALZ061>064-280300-
COASTAL ALABAMA


CITY           SKY/WX    TMP DP  RH WIND       PRES   REMARKS
MOBILE REG APT CLOUDY    73  71  93 NE3       30.13S
BROOKLEY FIELD CLOUDY    77  72  84 E10       30.13S
GULF SHORES    MOCLDY    72  71  95 E6        30.11F

$$

ALZ051>060-280300-
INTERIOR SOUTHWEST AND SOUTH CENTRAL ALABAMA


CITY           SKY/WX    TMP DP  RH WIND       PRES   REMARKS
ANDALUSIA/OPP  CLOUDY    74  69  85 CALM      30.14F
EVERGREEN      CLOUDY    70  69  97 E3        30.15S
FLORALA        CLOUDY    70  68  93 CALM      30.16F
GREENVILLE     FAIR      72  70  93 CALM      30.16R

$$

FLZ001>006-280300-
WESTERN FLORIDA PANHANDLE


CITY           SKY/WX    TMP DP  RH WIND       PRES   REMARKS
CRESTVIEW      CLOUDY    73  71  93 CALM      30.15F
DESTIN         MOCLDY    79  70  74 SE7       30.13F
DUKE FIELD     MOCLDY    72  70  94 E3        30.13S
MARY ESTHER    MOCLDY    79  71  76 SE3       30.12R
MILTON         CLOUDY    76  71  85 N6        30.14S
PENSACOLA      CLOUDY    75  73  93 CALM      30.13S
NAS PENSACOLA  CLOUDY    79  75  87 CALM      30.11F
VALPARAISO     MOCLDY    78  70  75 E8        30.14S

$$

...MARINE OBSERVATIONS...

STATION/POSITION TIME  SKY/WX   TEMP    WIND        PRES    VSBY
                                AIR SEA DIR/SP/G
                 (UTC)          (F)     (DEG/KT/KT) (MB)    (MI)
PASCAGOULA       0100            78      90/  5/  7 1019.3R
PETIT BOIS ISL   0100            79     100/  5/  6 1019.9R
E DAUPHIN ISLAND 0200            79      80/  7/  8 1018.9F
MIDDLE BAY LIGHT 0100            77      60/  5     1018.6F
USCG MOBILE BAY  0100            77 80   80/  5/  7 1018.9R
STATE DOCKS      0100            76 79              1019.7R
MEAHER PARK      0200            75      50/  3     1019.6S
FORT MORGAN      0100            78     120/  3/  3 1019.2S
12 S ORANGE BCH  0150            80 81  160/  2/  4 1018.8F
WVE H/P(F/S)=  3/ 6

PENSACOLA BAY    0100            81 82  140/  1/  3 1020.6R
64 S DAUPHIN ISL 0150            76 80  240/  6/  8 1019.5S
WVE H/P(F/S)=  3/ 7

67 S FORT MORGAN 0130            75     260/  8     1019.0F
115 SE PENSACOLA 0150            80 81  110/  6/ 10 1020.7R
WVE H/P(F/S)=  3/ 6

MID GULF/42001   0150            81 82   80/ 14/ 16 1017.6F
WVE H/P(F/S)=  3/ 8

EAST GULF/42003  0150            81 82   80/ 10/ 12 1018.9R
WVE H/P(F/S)=  4/ 6


$$

...NEARBY LOCATIONS

CITY           SKY/WX    TMP DP  RH WIND       PRES   REMARKS
GULFPORT       CLOUDY    77  70  79 E5        30.10R
BILOXI         CLOUDY    76  72  86 SE5       30.10S
PASCAGOULA     CLOUDY    74  72  93 CALM      30.12R
HATTIESBURG    CLOUDY    74  71  91 CALM      30.12R
LAUREL         MOCLDY    73  68  83 CALM      30.13S
MERIDIAN       CLOUDY    70  68  93 E5        30.14R
MERIDIAN NAS   CLOUDY    70  68  93 SE3       30.14R
MONTGOMERY     LGT RAIN  72  70  93 N6        30.18R
MAXWELL AFB    CLOUDY    71  70  95 N6        30.18R
TROY           CLOUDY    71  69  93 SE3       30.17R
FORT RUCKER    CLOUDY    70  68  93 CALM      30.15R
DALEVILLE      CLOUDY    70  69  97 NE7       30.16R
DOTHAN         CLOUDY    70  69  97 E3        30.19S

$$

...OTHER SURROUNDING LOCATIONS...

CITY           SKY/WX    TMP DP  RH WIND       PRES   REMARKS
BIRMINGHAM     TSTM      68  68 100 NE5       30.24R
TUSCALOOSA     CLOUDY    69  67  93 E7        30.15F
COLUMBUS GA    CLOUDY    75  66  73 CALM      30.18R
PANAMA CITY    NOT AVBL
TALLAHASSEE    CLOUDY    77  73  87 CALM      30.16R
BATON ROUGE    MOCLDY    71  68  90 N3        30.10R
NEW ORLEANS    MOCLDY    77  68  73 CALM      30.09R
SLIDELL        CLOUDY    75  71  87 N3        30.09S
JACKSON        PTCLDY    73  70  90 SE7       30.11R
MCCOMB         PTCLDY    70  68  93 CALM      30.12R

$$

...SURROUNDING MARINE OBSERVATIONS...

STATION/POSITION TIME  SKY/WX   TEMP    WIND        PRES    VSBY
                                AIR SEA DIR/SP/G
                 (UTC)          (F)     (DEG/KT/KT) (MB)    (MI)
WAVELAND         0100            78 80  120/  6/  6 1019.4R
PASCAGOULA RGN A 0100            80      80/  4/  5 1019.0R
PASCAGOULA PORT  0100               82                N/A
GRAND ISLE       0100            78 81   80/ 11/ 13 1017.8S
SOUTHWEST PASS   0200            78      60/ 22/ 25 1017.3R
PILOT STATION E  0100            76 75  100/ 34/ 36 1016.3F
SHELL BEACH      0100            78 81  100/ 10/ 12 1018.4R
PANAMA CITY      0100            77 83   80/  1/  2 1020.3R
APALACHICOLA     0100            79 82  200/  3/  5 1020.2R
TYNDALL TOWER C  0200            78        CALM     1020.4R
S APLCHCLA/42036 0150            80 81  320/  2/  2 1019.9R
WVE H/P(F/S)=  2/ 6


$$




USA.gov is the U.S. government's official web portal to all federal, state and local government web resources and services.